Погода в Чернигове

Хотите узнать прогноз погоды в Чернигове? Тогда Вам сюда: Погода в Чернигове

Поиск расширенной информации на нашем сайте:

Полезная информация:

Новости сайта



02.01.2020
Опубликован Долгосрочный прогноз погоды по городам России и ближнего зарубежья на январь 2020 года.
Карты: Прогноз на январь и февраль 2020 года, Сравнение прогнозируемой аномалии приземной температуры воздуха на январь 2020 года по разным моделям.




Погода в Чернигове - сегодня

Время (UTC), дата Ветер
(°,м/с) 
Видим.   Явления Облачность Т
(°С)
Тd
(°С)
f(%) Тe
(°С)
Pmin
(гПа)
dP
(гПа)
Po
(мм)
O2
(г/м3)
Тmin Tmax R s Состояние
почвы
00 19.01.20 190 (Ю) н/о  дымка  10/10 210 м 
[St]
-1.7 -1.9 99 -3  1029.2  760  309           
03 19.01.20 220 (ЮЗ) н/о  дымка  10/10 210 м 
[St]
-1.9 -2.1 99 -4  1029.4  0.2  761  309           
06 19.01.20 250 (З) 4000 м  дымка  10/10 240 м 
[St]
-2.1 -2.4 98 -3  1030.2  0.8  761  309  -2.3         
09 19.01.20 270 (З) 4000 м  дымка  10/10 240 м 
[St]
-1.9 -2.1 99 -3  1031.6  1.4  762  310           
12 19.01.20 270 (З) 4000 м  дымка  10/10 240 м 
[St]
-1.9 -2.4 96 -3  1032.2  0.5  763  310           
15 19.01.20 270 (З) н/о  дымка  10/10 270 м 
[St]
-1.9 -2.4 96 -3  1033.7  1.5  764  310           
18 19.01.20 280 (З) н/о  дымка  10/10 270 м 
[St]
-1.7 -2.5 94 -3  1035.2  1.5  765  310    -1.4       
21 19.01.20 330 (СЗ) н/о  дымка  10/10 500 м 
[Sc]
-1.5 -2.6 92 -1  1036.3  1.1  766  311           
00 20.01.20 300 (СЗ) н/о  дымка  10/10 500 м 
[Sc]
-1.3 -2.4 92 -2  1036.9  0.6  766  310           
03 20.01.20 270 (З) н/о  слаб. ливневой снег  10/10 240 м кучево-дожд. 
[Cb cap]
-1.1 -1.5 97 -2  1037.4  0.5  766  310           
06 20.01.20 320 (СЗ) 2000 м  дымка{ливн. осадки}  10/10 200 м 
[St]
-0.8 -0.9 99 -3  1037.8  0.4  767  310  -1.7    0.3     
09 20.01.20 270 (З) 4000 м  дымка  10/10 210 м 
[St]
+0.5 -0.4 94 -2  1038.3  0.6  767  309           
12 20.01.20 270 (З) 4000 м  дымка  10/10 660 м 
[St]
+1.4 +0.9 96 -1  1037.3  -0.9  767  307           
15 20.01.20 280 (З) н/о    9/9 630 м 
[Sc]
+2 -0.8 82 1036.6  -0.7  766  307           
18 20.01.20 300 (СЗ) н/о    10/10 420 м 
[St]
+1.7 -0.5 85 -1  1036.7  0.1  766  307    +2.5       
21 20.01.20 300 (СЗ) н/о    10/10 420 м 
[St]
+1.5 -1.1 83 -2  1035.4  -1.3  765  307           
00 21.01.20 290 (З) н/о    10/10 500 м 
[Sc]
+1.2 -1.1 85 -2  1033.8  -1.6  764  307           
03 21.01.20 270 (З) н/о    10/10 540 м 
[Sc]
+1 -1.6 83 -2  1031.2  -2.6  762  306           
06 21.01.20 280 (З) 10 км    10/10 540 м 
[Sc]
+0.9 -1.5 84 -3  1028.9  -2.2  760  306  +0.8         
09 21.01.20 280 (З) 10 км    10/10 450 м 
[Sc]
+1.8 -2 76 -1  1026.8  -2.1  759  304           
12 21.01.20 290 (З) 10 км    10/10 540 м 
[Sc]
+2.7 -1.5 74 -1  1023.6  -3.1  756  302           
15 21.01.20 280 (З) н/о    10/10 420 м 
[Sc]
+2.3 -1.1 78 -1  1021.7  -1.9  755  302           
18 21.01.20 300 (СЗ) н/о    10/10 420 м 
[Sc]
+2.8 +0.7 86 -1  1020.7  -0.9  754  301    +3       
21 21.01.20 290 (З) н/о    10/10 450 м 
[Sc]
+3.3 +0.9 84 1020.3  -0.4  754  300           
00 22.01.20 280 (З) н/о    10/10 420 м 
[Sc]
+3.5 +1.4 86 +1  1018.3  -1.9  753  299           
Время (UTC), дата Ветер
(°,м/с) 
Видим.   Явления Облачность Т
(°С)
Тd
(°С)
f(%) Тe
(°С)
Pmin
(гПа)
dP
(гПа)
Po
(мм)
O2
(г/м3)
Тmin Tmax R s Состояние
почвы

Для получения пояснительной информации подведите курсор к названию столбца.

ПОГОДА в Чернигове - архив

Всё, что Вы хотите узнать о погоде в Чернигове - удобно и подробно!

Выберите нужную дату (начиная с 1 января 2019* года) и нажмите кнопку "Найти".
Будут отображены архивные сводки погоды по пункту Чернигов, начиная с указанной даты.


Отображать данные в формате CSV (для использования в таблицах Excel)


Внимание! Наш архив погоды предназначен исключительно для личного некоммерческого использования в познавательных целях. Если Вам необходимы официальные справки о состоянии погоды (для производственных, юридических, коммерческих и т.п. целей), обращайтесь в органы Росгидромета.

*Примечание: данная дата относится к архиву по метеостанциям СССР (Россия, СНГ, Балтия).
Архив по метеостанциям Зарубежной Европы и Азии (кроме Китая) хранится 10 дней, по другим регионам земного шара (Китай, Африка, Америка, Австралия, Океания) - 1 день.

Чернигов - район местоположения метеостанции


Название, широта, долгота, высота метеостанции:
Чернигов 51.5°ш. 31.2°д. 141 м над ур. моря [Украина]

Дополнительная информация

В oтличие oт бoльшинства пoгoдных сайтoв мы публикуем пoдрoбную метеoинфoрмацию в детальнoм прoфессиoнальнoм фoрмате.

Характеристики температуры и влажнoсти вoздуха измеряются на высoте 2 м в тени вдали oт зданий и деревьев.
Скoрoсть ветра измеряется на высoте 10 м (на урoвне рoста челoвека скoрoсть ветра ниже в 1.5-2 раза). Если метеoстанция нахoдится в гoрoде или в лесу, тo скoрoсть ветра занижена на 2-4 м/с пo сравнению с oткрытым местoм. Скoрoсть ветра над акватoриями крупных рек и oзёр, а также на вершинах хoлмoв на 2-5 м/с выше, чем в oбычных услoвиях.
Атмoсфернoе давление в разных тoчках местнoсти мoжет значительнo oтличаться oт давления на метеoстанции, в зависимoсти oт услoвий рельефа (при пoдъёме на 10 м давление пoнижается примернo на 1 мм рт.ст.).